Regional Weather Roundup
Issued by NWS Wakefield, VA

Home | Current Version | Previous Version | Graphics & Text | Print | Product List | Glossary On
Versions: 1 2 3 4 5 6 7 8 9 10 11 12 13 14 15 16 17 18 19 20 21 22 23 24 25 26 27 28 29 30 31 32 33 34 35 36 37 38 39 40 41 42 43 44 45 46 47 48 49 50
000
ASUS41 KAKQ 030415
RWRAKQ

REGIONAL WEATHER ROUNDUP
NATIONAL WEATHER SERVICE WAKEFIELD VA
1200 AM EDT MON AUG 03 2015

Note: "fair" indicates few or no clouds below 12,000 feet with no
significant weather and/or obstructions to visibility. * = Denotes
station may not report precipitation (e.g., rain,snow,etc.),
thunder or fog.

VAZ042-051-052>054-056-030500-
NORTHERN VIRGINIA

CITY           SKY/WX    TMP DP  RH WIND       PRES   REMARKS
WASH NATIONAL  CLEAR     77  64  64 S5        29.90F
DULLES         CLEAR     70  63  78 S8        29.90F
FORT BELVOIR   NOT AVBL
QUANTICO       NOT AVBL
FREDERICKSBRG* CLEAR     69  67  92 CALM      29.91F
STAFFORD*      CLEAR     63  62  96 CALM      29.96F
WARRENTON      CLEAR     63  62  99 CALM      29.92S
CULPEPER*      CLEAR     64  63  96 CALM      29.93F
MANASSAS*      CLEAR     66  66 100 CALM      29.91F
LEESBURG*      CLEAR     72  64  78 S8        29.91F
WINCHESTER     CLEAR     73  61  64 SW5       29.91F
FRONT ROYAL*   FAIR      68  63  83 S6        29.91F
LURAY*         FAIR      68  64  88 CALM      29.94S
$$

VAZ048-049-060>072-079>083-030500-
CENTRAL AND SOUTH CENTRAL VIRGINIA

CITY           SKY/WX    TMP DP  RH WIND       PRES   REMARKS
RICHMOND       PTCLDY    72  63  73 CALM      29.93S
CHESTERFIELD*  FAIR      66  52  59 CALM      29.95S
PETERSBURG*    PTCLDY    67  67 100 CALM      29.94S
HANOVER        CLEAR     66  64  93 CALM      29.94F
TAPPAHANNOCK*  CLEAR     67  64  89 CALM      29.93F
QUINTON*       FAIR      69  67  94 CALM      29.93R
CHARLOTTSVILLE CLEAR     69  64  84 CALM      29.94S
GORDONSVILLE*  FAIR      63  63 100 CALM      29.93F
ORANGE*        CLEAR     64  63  94 CALM      29.95S
LOUISA*        CLEAR     63  61  94 CALM      29.93S
BUMPASS*       FAIR      65  63  94 CALM      29.93F
FARMVILLE*     CLEAR     61  61 100 CALM      29.94R
CREWE*         FAIR     N/A N/A N/A CALM      29.94S
FORT PICKETT*  FAIR      66  62  86 CALM      29.95R
CHASE CITY*    MOCLDY    69  66  88 CALM      29.95S
CLARKSVILLE*   FAIR      66  64  94 CALM      29.94S
SOUTH HILL*    PTCLDY    67  62  84 CALM      30.01R
LAWRENCEVILLE* MOCLDY    66  64  94 CALM      29.95R
EMPORIA*       CLEAR     64  64 100 CALM      29.96R
$$

VAZ088>098-030500-
SOUTHEAST VIRGINIA

CITY           SKY/WX    TMP DP  RH WIND       PRES   REMARKS
NORFOLK        CLEAR     77  73  87 CALM      29.92S
VIRGINIA BEACH PTCLDY    77  72  84 CALM      29.91F
NORFOLK NAVAL  PTCLDY    72  70  93 CALM      29.93S
WEST POINT*    CLEAR     71  68  90 CALM      29.94S
SALUDA*        FAIR      70  68  93 CALM      29.92F
NEWPORT NEWS   CLEAR     70  67  90 SE3       29.93R
LANGLEY AFB    CLEAR     72  69  90 S2        29.92R
FORT EUSTIS    CLEAR     72  72 100 CALM      29.91R
WILLIAMSBURG*  CLEAR     73  72  94 CALM      29.93F
HR EXEC AP*    FAIR      66  64  94 CALM      29.95S
FRANKLIN*      CLEAR     69  67  92 CALM      29.93F
WAKEFIELD      CLEAR     71  68  90 CALM      29.94R
$$

VAZ020-022-025-037-045-030500-
WEST CENTRAL AND SOUTHWEST VIRGINIA

CITY           SKY/WX    TMP DP  RH WIND       PRES   REMARKS
STAUNTON*      CLEAR     65  60  83 CALM      29.98S
WAYNESBORO*    FAIR      65  58  77 SW3       29.98S
HOT SPRINGS VA CLEAR     65  50  58 SW7       30.08S
LYNCHBURG      CLEAR     62  60  93 CALM      29.98S
DANVILLE       CLEAR     66  63  90 CALM      29.95S
SOUTH BOSTON*  FAIR      65  64  96 CALM      29.95R
MARTINSVILLE   CLEAR     63  63 100 CALM      29.99S
ROANOKE        CLEAR     68  58  70 NW3       30.00R
BLACKSBURG     CLEAR     62  58  89 CALM      30.06R
DUBLIN*          N/A     63  60  91 CALM      30.04R
MARION*        PTCLDY    63  59  85 CALM      30.06S
HILLSVILLE*    CLOUDY    66  58  74 SE3       30.04R
RICHLANDS*     FAIR      70  57  62 CALM      30.03S
WISE*          CLEAR     68  54  60 CALM      30.03F
ABINGDON*      CLEAR     68  59  72 CALM      30.00S
$$

MDZ021>025-VAZ099-100-030500-
SOUTHERN MARYLAND AND THE DELMARVA PENINSULA

CITY           SKY/WX    TMP DP  RH WIND       PRES   REMARKS
PATUXENT RIVER CLEAR     69  64  84 S5        29.91F
BAY BRIDGE APT   N/A     77  63  61 S3        29.90S
LEONARDTOWN    CLEAR     64  61  88 CALM      29.93F
DOVER          PTCLDY    72  68  86 S6        29.89S
GEORGETOWN     CLEAR     69  67  93 CALM      29.92S
EASTON         CLEAR     72  66  80 CALM      29.94F
CAMBRIDGE      CLEAR     70  64  83 CALM      29.91F
SALISBURY      CLEAR     71  69  93 CALM      29.92S
OCEAN CITY     FOG       70  68  93 CALM      29.92S VSB 3/4
WALLOPS ISLAND CLEAR     74  73  97 CALM      29.93S
ACCOMACK*      FOG       70  64  83 CALM      29.93R VSB 1/2
$$

NCZ012>017-030>032-030500-
NORTH CENTRAL AND EASTERN NORTH CAROLINA

CITY           SKY/WX    TMP DP  RH WIND       PRES   REMARKS
ROANOKE RAPIDS FAIR      68  64  88 CALM      29.94F
RALEIGH        PTCLDY    74  61  63 CALM      29.95S
ELIZABETH CITY CLOUDY    76  71  85 NW6       29.94S
AHOSKIE*       CLEAR     69  66  90 CALM      29.95S
EDENTON*       PTCLDY    73  70  89 CALM      29.94S
CURRITUCK*     CLOUDY    77  70  79 W3        29.95R
KILL DEVIL HLS PTCLDY    80  71  75 SW6       29.93F
MANTEO         PTCLDY    79  73  80 SW8       29.95S
CAPE HATTERAS  CLEAR     79  73  82 W10       29.96R
TARBORO*         N/A     72  70  93 CALM      29.95S
GOLDSBORO      PTCLDY    77  73  88 CALM      29.93S
WASHINGTON     CLEAR     77  73  86 SW5       29.95S
GREENVILLE     CLEAR     77  73  88 SW5       29.97S
NEW BERN       CLEAR     75  72  90 CALM      29.97R
WILMINGTON     MOCLDY    77  74  90 S5        29.95R
$$

VAZ048-030500-
ELSEWHERE

CITY           SKY/WX    TMP DP  RH WIND       PRES   REMARKS
HARRISBURG PA  PTCLDY    77  62  59 SW14      29.86S
BALTIMORE      CLEAR     73  59  61 SW5       29.88F
ANNAPOLIS      CLEAR     75  61  61 CALM      29.89F
ANDREWS AFB    CLEAR     69  63  80 S8        29.90F
PHILADELPHIA   PTCLDY    77  63  61 S9        29.89S
HENDERSON NC   PTCLDY    71  60  68 CALM      29.96R
GREENSBORO     PTCLDY    73  58  59 SE5       29.96R
ROCKY MOUNT    CLEAR     79  70  74 S8        29.95S
$$

VAZ100-030500-
MARINE

STATION/POSITION TIME  TEMP    WIND        PRES    WAVE   SWELL
                       AIR SEA DIR/SP/G            HT/PER HT/PER
                 (UTC) (F)     (DEG/KT/KT) (MB)    (FT/S) (FT/S)
BRANDYWINE LGT   0300   75 73  200/ 11/ 11 1013.0F
CAPE MAY NJ      0300   73 77  160/  5/  6 1012.5F
LEWES DE         0300   74 77  200/  4/  6 1012.8F
15NM E FENWICK I 0350   79 80  200/  8/  8 1013.1F   3/12   3/12
OCEAN-CITY-INLET 0300   77 76  210/  5/  6 1012.4F
WACHAPREAGUE VA  0312   75 84   CALM  /  2 1013.3F
GOOSES REEF MD   0400   80 82  250/ 10/ 12 1013.9F
COVE POINT MD    0300   79     260/  5/  6 1013.8F
SOLOMONS ISLAND  0300      85                N/A
BISHOPS HEAD MD  0300   82 84  260/  5/  6 1012.3F
PINEY POINT MD   0300          230/  8/  9   N/A
POTOMAC MD       0400   80 83  250/  6/  8 1012.0F   0
CAMBRIDGE MD     0300   75 85  210/  2/  4 1012.2F
LEWISETTA VA     0300   78 85  260/  5/  6 1012.9F
RAPPAHANNOCK LGT 0300          160/  2/  2 1013.7F
STINGRAY PT      0400   81 83  280/  2/  4 1013.2F   0
YORK RVR RNG VA  0300   81      CALM  /  1 1012.5F
YORKTOWN VA      0300   78 84     CALM     1012.8F
JAMESTOWN VA     0400   75 86   50/  4/  4   N/A
DOMINION TERM VA 0300   81      50/  2/  4 1012.7F
KIPTOPEKE VA     0300      82  110/  3/  4   N/A
CHES BAY BRIDGE  0300   80 81  100/  3/  5 1012.5F
CAPE HENRY VA    0300   79      80/  1/  2   N/A
CHESAPEAKE LGHT  0300   80     340/  6/  6 1013.9F
WILLOUBY STN VA  0300   81      CALM  /  1 1013.8F
CAPE HENRY BUOY  0328      82                N/A     2/12   2/12
1ST LANDING BUOY 0400      80              1012.7F   1/ 5
CAPE CHARLES BUO 0326      80                N/A     2/11   2/11
OFFSHORE WE BUOY 0311      82                N/A     3/12   3/12
64NM E OF VA BCH 0350   82 81  210/ 12/ 14 1013.1S   3/11   2/11
DUCK PIER NC     0300   81 72  210/  7/  9 1012.8S
44100 DUCK FRF   0324      80                N/A     2/12   2/12
44056 DUCK FRF   0311      79                N/A     2/13   2/13
OREGON INLET NC  0300   82 86  230/ 17/ 20 1013.8R
HATTERAS NC      0300   79 83  230/  7/ 14 1013.9F
DIAMOND SHLS NC  0350   82 85  210/ 14/ 16 1014.8R   4/12   2/12



USA.gov is the U.S. government's official web portal to all federal, state and local government web resources and services.